iso_date,epoch_date,Year,Hour,Min,DOY,POS_DOY,Lat,Lon,BP,Ts,Ta,has_bp,has_ts,has_ta,BuoyID,Buoy_Type,Buoy_Owner,Logistics,Hemisphere
2020-07-10T18:49:58Z,1594406998,2020,18,50,192.7847,192.7847,79.44017,3.73459,-999.00,-999.00,-999.0,no,no,no,300534060551660,NOMAD,AWI/USIABP,MOSAiC,North
2020-07-10T19:00:02Z,1594407603,2020,19,0,192.7917,192.7917,79.45317,3.85821,-999.00,-999.00,-999.0,no,no,no,300534060551660,NOMAD,AWI/USIABP,MOSAiC,North
2020-07-10T19:09:59Z,1594408199,2020,19,10,192.7986,192.7986,79.45309,3.85702,-999.00,-999.00,-999.0,no,no,no,300534060551660,NOMAD,AWI/USIABP,MOSAiC,North
2020-07-10T19:20:03Z,1594408804,2020,19,20,192.8056,192.8056,79.45309,3.85702,-999.00,-999.00,-999.0,no,no,no,300534060551660,NOMAD,AWI/USIABP,MOSAiC,North
2020-07-10T19:30:00Z,1594409400,2020,19,30,192.8125,192.8125,79.45309,3.85702,-999.00,-999.00,-999.0,no,no,no,300534060551660,NOMAD,AWI/USIABP,MOSAiC,North
2020-07-13T03:29:57Z,1594610997,2020,3,30,195.1458,195.1458,79.41615,3.45883,-999.00,-999.00,-999.0,no,no,no,300534060551660,NOMAD,AWI/USIABP,MOSAiC,North
2020-07-13T03:40:01Z,1594611602,2020,3,40,195.1528,195.1528,79.42733,3.39255,-999.00,-999.00,-999.0,no,no,no,300534060551660,NOMAD,AWI/USIABP,MOSAiC,North
2020-07-13T03:49:58Z,1594612198,2020,3,50,195.1597,195.1597,79.43857,3.3269,-999.00,-999.00,-999.0,no,no,no,300534060551660,NOMAD,AWI/USIABP,MOSAiC,North
2020-07-13T04:00:02Z,1594612803,2020,4,0,195.1667,195.1667,79.44999,3.26022,-999.00,-999.00,-999.0,no,no,no,300534060551660,NOMAD,AWI/USIABP,MOSAiC,North
2020-07-13T04:09:59Z,1594613399,2020,4,10,195.1736,195.1736,79.46273,3.25516,-999.00,-999.00,-999.0,no,no,no,300534060551660,NOMAD,AWI/USIABP,MOSAiC,North
2020-07-13T04:20:03Z,1594614004,2020,4,20,195.1806,195.1806,79.4767,3.32696,-999.00,-999.00,-999.0,no,no,no,300534060551660,NOMAD,AWI/USIABP,MOSAiC,North
2020-07-13T04:30:00Z,1594614600,2020,4,30,195.1875,195.1875,79.47483,3.39963,-999.00,-999.00,-999.0,no,no,no,300534060551660,NOMAD,AWI/USIABP,MOSAiC,North
2020-07-13T04:39:56Z,1594615196,2020,4,40,195.1944,195.1944,79.46376,3.466,-999.00,-999.00,-999.0,no,no,no,300534060551660,NOMAD,AWI/USIABP,MOSAiC,North
2020-07-13T04:50:00Z,1594615801,2020,4,50,195.2014,195.2014,79.4525,3.53157,-999.00,-999.00,-999.0,no,no,no,300534060551660,NOMAD,AWI/USIABP,MOSAiC,North
2020-07-13T04:59:57Z,1594616397,2020,5,0,195.2083,195.2083,79.44112,3.59802,-999.00,-999.00,-999.0,no,no,no,300534060551660,NOMAD,AWI/USIABP,MOSAiC,North
2020-07-13T05:10:01Z,1594617002,2020,5,10,195.2153,195.2153,79.42984,3.66395,-999.00,-999.00,-999.0,no,no,no,300534060551660,NOMAD,AWI/USIABP,MOSAiC,North
2020-07-13T05:19:58Z,1594617598,2020,5,20,195.2222,195.2222,79.41836,3.72998,-999.00,-999.00,-999.0,no,no,no,300534060551660,NOMAD,AWI/USIABP,MOSAiC,North
2020-07-13T05:30:02Z,1594618203,2020,5,30,195.2292,195.2292,79.41521,3.80405,-999.00,-999.00,-999.0,no,no,no,300534060551660,NOMAD,AWI/USIABP,MOSAiC,North
2020-07-13T05:39:59Z,1594618799,2020,5,40,195.2361,195.2361,79.43271,3.89291,-999.00,-999.00,-999.0,no,no,no,300534060551660,NOMAD,AWI/USIABP,MOSAiC,North
2020-07-13T05:50:03Z,1594619404,2020,5,50,195.2431,195.2431,79.44703,3.85515,-999.00,-999.00,-999.0,no,no,no,300534060551660,NOMAD,AWI/USIABP,MOSAiC,North
2020-07-13T06:00:00Z,1594620000,2020,6,0,195.25,195.25,79.45831,3.78462,-999.00,-999.00,-999.0,no,no,no,300534060551660,NOMAD,AWI/USIABP,MOSAiC,North
2020-07-13T06:09:56Z,1594620596,2020,6,10,195.2569,195.2569,79.46955,3.71838,-999.00,-999.00,-999.0,no,no,no,300534060551660,NOMAD,AWI/USIABP,MOSAiC,North
2020-07-13T06:20:00Z,1594621201,2020,6,20,195.2639,195.2639,79.48108,3.65214,-999.00,-999.00,-999.0,no,no,no,300534060551660,NOMAD,AWI/USIABP,MOSAiC,North
2020-07-13T06:29:57Z,1594621797,2020,6,30,195.2708,195.2708,79.49223,3.58493,-999.00,-999.00,-999.0,no,no,no,300534060551660,NOMAD,AWI/USIABP,MOSAiC,North
2020-07-13T06:40:01Z,1594622402,2020,6,40,195.2778,195.2778,79.50344,3.51778,-999.00,-999.00,-999.0,no,no,no,300534060551660,NOMAD,AWI/USIABP,MOSAiC,North
2020-07-13T06:49:58Z,1594622998,2020,6,50,195.2847,195.2847,79.51473,3.45213,-999.00,-999.00,-999.0,no,no,no,300534060551660,NOMAD,AWI/USIABP,MOSAiC,North
2020-07-13T07:00:02Z,1594623603,2020,7,0,195.2917,195.2917,79.52608,3.38456,-999.00,-999.00,-999.0,no,no,no,300534060551660,NOMAD,AWI/USIABP,MOSAiC,North
2020-07-13T07:09:59Z,1594624199,2020,7,10,195.2986,195.2986,79.53737,3.31688,-999.00,-999.00,-999.0,no,no,no,300534060551660,NOMAD,AWI/USIABP,MOSAiC,North
2020-07-13T07:20:03Z,1594624804,2020,7,20,195.3056,195.3056,79.5487,3.25051,-999.00,-999.00,-999.0,no,no,no,300534060551660,NOMAD,AWI/USIABP,MOSAiC,North
2020-07-13T07:30:00Z,1594625400,2020,7,30,195.3125,195.3125,79.55992,3.18484,-999.00,-999.00,-999.0,no,no,no,300534060551660,NOMAD,AWI/USIABP,MOSAiC,North
2020-07-13T07:39:56Z,1594625996,2020,7,40,195.3194,195.3194,79.55978,3.18568,-999.00,-999.00,-999.0,no,no,no,300534060551660,NOMAD,AWI/USIABP,MOSAiC,North
2020-07-13T07:50:00Z,1594626601,2020,7,50,195.3264,195.3264,79.55978,3.18568,-999.00,-999.00,-999.0,no,no,no,300534060551660,NOMAD,AWI/USIABP,MOSAiC,North
2020-07-13T07:59:57Z,1594627197,2020,8,0,195.3333,195.3333,79.51664,3.33506,-999.00,-999.00,-999.0,no,no,no,300534060551660,NOMAD,AWI/USIABP,MOSAiC,North
2020-07-13T08:10:01Z,1594627802,2020,8,10,195.3403,195.3403,79.5012,3.43016,-999.00,-999.00,-999.0,no,no,no,300534060551660,NOMAD,AWI/USIABP,MOSAiC,North
2020-07-13T08:19:58Z,1594628398,2020,8,20,195.3472,195.3472,79.50026,3.43514,-999.00,-999.00,-999.0,no,no,no,300534060551660,NOMAD,AWI/USIABP,MOSAiC,North
2020-07-13T08:30:02Z,1594629003,2020,8,30,195.3542,195.3542,79.50025,3.43497,-999.00,-999.00,-999.0,no,no,no,300534060551660,NOMAD,AWI/USIABP,MOSAiC,North
2020-07-13T08:39:59Z,1594629599,2020,8,40,195.3611,195.3611,79.50028,3.43521,-999.00,-999.00,-999.0,no,no,no,300534060551660,NOMAD,AWI/USIABP,MOSAiC,North
2020-07-13T08:50:03Z,1594630204,2020,8,50,195.3681,195.3681,79.50035,3.43522,-999.00,-999.00,-999.0,no,no,no,300534060551660,NOMAD,AWI/USIABP,MOSAiC,North
2020-07-13T09:00:00Z,1594630800,2020,9,0,195.375,195.375,79.50026,3.43537,-999.00,-999.00,-999.0,no,no,no,300534060551660,NOMAD,AWI/USIABP,MOSAiC,North
2020-07-13T09:09:56Z,1594631396,2020,9,10,195.3819,195.3819,79.49987,3.43706,-999.00,-999.00,-999.0,no,no,no,300534060551660,NOMAD,AWI/USIABP,MOSAiC,North
2020-07-13T09:20:00Z,1594632001,2020,9,20,195.3889,195.3889,79.50851,3.437,-999.00,-999.00,-999.0,no,no,no,300534060551660,NOMAD,AWI/USIABP,MOSAiC,North
2020-07-13T09:29:57Z,1594632597,2020,9,30,195.3958,195.3958,79.51885,3.43651,-999.00,-999.00,-999.0,no,no,no,300534060551660,NOMAD,AWI/USIABP,MOSAiC,North
2020-07-13T09:40:01Z,1594633202,2020,9,40,195.4028,195.4028,79.52556,3.4657,-999.00,-999.00,-999.0,no,no,no,300534060551660,NOMAD,AWI/USIABP,MOSAiC,North
2020-07-13T09:49:58Z,1594633798,2020,9,50,195.4097,195.4097,79.52492,3.52769,-999.00,-999.00,-999.0,no,no,no,300534060551660,NOMAD,AWI/USIABP,MOSAiC,North
2020-07-13T10:00:02Z,1594634403,2020,10,0,195.4167,195.4167,79.51342,3.53434,-999.00,-999.00,-999.0,no,no,no,300534060551660,NOMAD,AWI/USIABP,MOSAiC,North
2020-07-13T10:09:59Z,1594634999,2020,10,10,195.4236,195.4236,79.50276,3.53493,-999.00,-999.00,-999.0,no,no,no,300534060551660,NOMAD,AWI/USIABP,MOSAiC,North
2020-07-13T10:20:03Z,1594635604,2020,10,20,195.4306,195.4306,79.50013,3.53356,-999.00,-999.00,-999.0,no,no,no,300534060551660,NOMAD,AWI/USIABP,MOSAiC,North
2020-07-13T10:30:00Z,1594636200,2020,10,30,195.4375,195.4375,79.50003,3.53377,-999.00,-999.00,-999.0,no,no,no,300534060551660,NOMAD,AWI/USIABP,MOSAiC,North
2020-07-13T10:39:56Z,1594636796,2020,10,40,195.4444,195.4444,79.50002,3.53373,-999.00,-999.00,-999.0,no,no,no,300534060551660,NOMAD,AWI/USIABP,MOSAiC,North
2020-07-13T10:50:00Z,1594637401,2020,10,50,195.4514,195.4514,79.49999,3.53358,-999.00,-999.00,-999.0,no,no,no,300534060551660,NOMAD,AWI/USIABP,MOSAiC,North
2020-07-13T10:59:57Z,1594637997,2020,11,0,195.4583,195.4583,79.49997,3.53402,-999.00,-999.00,-999.0,no,no,no,300534060551660,NOMAD,AWI/USIABP,MOSAiC,North
2020-07-13T11:10:01Z,1594638602,2020,11,10,195.4653,195.4653,79.50008,3.53383,-999.00,-999.00,-999.0,no,no,no,300534060551660,NOMAD,AWI/USIABP,MOSAiC,North
2020-07-13T11:19:58Z,1594639198,2020,11,20,195.4722,195.4722,79.50009,3.53399,-999.00,-999.00,-999.0,no,no,no,300534060551660,NOMAD,AWI/USIABP,MOSAiC,North
2020-07-13T11:30:02Z,1594639803,2020,11,30,195.4792,195.4792,79.50009,3.534,-999.00,-999.00,-999.0,no,no,no,300534060551660,NOMAD,AWI/USIABP,MOSAiC,North
2020-07-13T11:39:59Z,1594640399,2020,11,40,195.4861,195.4861,79.50009,3.534,-999.00,-999.00,-999.0,no,no,no,300534060551660,NOMAD,AWI/USIABP,MOSAiC,North
2020-07-13T11:50:03Z,1594641004,2020,11,50,195.4931,195.4931,79.50009,3.534,-999.00,-999.00,-999.0,no,no,no,300534060551660,NOMAD,AWI/USIABP,MOSAiC,North
2020-07-13T12:00:00Z,1594641600,2020,12,0,195.5,195.5,79.50009,3.534,-999.00,-999.00,-999.0,no,no,no,300534060551660,NOMAD,AWI/USIABP,MOSAiC,North
2020-07-13T12:09:56Z,1594642196,2020,12,10,195.5069,195.5069,79.50009,3.534,-999.00,-999.00,-999.0,no,no,no,300534060551660,NOMAD,AWI/USIABP,MOSAiC,North
2020-07-13T12:20:00Z,1594642801,2020,12,20,195.5139,195.5139,79.50009,3.534,-999.00,-999.00,-999.0,no,no,no,300534060551660,NOMAD,AWI/USIABP,MOSAiC,North
2020-07-13T12:29:57Z,1594643397,2020,12,30,195.5208,195.5208,79.50009,3.534,-999.00,-999.00,-999.0,no,no,no,300534060551660,NOMAD,AWI/USIABP,MOSAiC,North
2020-07-13T12:40:01Z,1594644002,2020,12,40,195.5278,195.5278,79.50009,3.534,-999.00,-999.00,-999.0,no,no,no,300534060551660,NOMAD,AWI/USIABP,MOSAiC,North
2020-07-13T12:49:58Z,1594644598,2020,12,50,195.5347,195.5347,79.50009,3.534,-999.00,-999.00,-999.0,no,no,no,300534060551660,NOMAD,AWI/USIABP,MOSAiC,North
2020-07-13T13:00:02Z,1594645203,2020,13,0,195.5417,195.5417,79.50009,3.534,-999.00,-999.00,-999.0,no,no,no,300534060551660,NOMAD,AWI/USIABP,MOSAiC,North
2020-07-13T13:09:59Z,1594645799,2020,13,10,195.5486,195.5486,79.50009,3.534,-999.00,-999.00,-999.0,no,no,no,300534060551660,NOMAD,AWI/USIABP,MOSAiC,North
2020-07-13T13:20:03Z,1594646404,2020,13,20,195.5556,195.5556,79.50009,3.534,-999.00,-999.00,-999.0,no,no,no,300534060551660,NOMAD,AWI/USIABP,MOSAiC,North
2020-07-13T13:30:00Z,1594647000,2020,13,30,195.5625,195.5625,79.50009,3.534,-999.00,-999.00,-999.0,no,no,no,300534060551660,NOMAD,AWI/USIABP,MOSAiC,North
2020-07-13T13:39:56Z,1594647596,2020,13,40,195.5694,195.5694,79.50009,3.534,-999.00,-999.00,-999.0,no,no,no,300534060551660,NOMAD,AWI/USIABP,MOSAiC,North
2020-07-13T13:50:00Z,1594648201,2020,13,50,195.5764,195.5764,79.50009,3.534,-999.00,-999.00,-999.0,no,no,no,300534060551660,NOMAD,AWI/USIABP,MOSAiC,North
2020-07-13T13:59:57Z,1594648797,2020,14,0,195.5833,195.5833,79.50009,3.534,-999.00,-999.00,-999.0,no,no,no,300534060551660,NOMAD,AWI/USIABP,MOSAiC,North
2020-07-13T14:10:01Z,1594649402,2020,14,10,195.5903,195.5903,79.50009,3.534,-999.00,-999.00,-999.0,no,no,no,300534060551660,NOMAD,AWI/USIABP,MOSAiC,North
2020-07-13T14:19:58Z,1594649998,2020,14,20,195.5972,195.5972,79.50009,3.534,-999.00,-999.00,-999.0,no,no,no,300534060551660,NOMAD,AWI/USIABP,MOSAiC,North
2020-07-13T14:30:02Z,1594650603,2020,14,30,195.6042,195.6042,79.50009,3.534,-999.00,-999.00,-999.0,no,no,no,300534060551660,NOMAD,AWI/USIABP,MOSAiC,North
2020-07-13T14:39:59Z,1594651199,2020,14,40,195.6111,195.6111,79.50009,3.534,-999.00,-999.00,-999.0,no,no,no,300534060551660,NOMAD,AWI/USIABP,MOSAiC,North
2020-07-13T14:50:03Z,1594651804,2020,14,50,195.6181,195.6181,79.50009,3.534,-999.00,-999.00,-999.0,no,no,no,300534060551660,NOMAD,AWI/USIABP,MOSAiC,North
2020-07-13T15:00:00Z,1594652400,2020,15,0,195.625,195.625,79.49985,3.63245,-999.00,-999.00,-999.0,no,no,no,300534060551660,NOMAD,AWI/USIABP,MOSAiC,North
2020-07-13T15:09:56Z,1594652996,2020,15,10,195.6319,195.6319,79.49984,3.63246,-999.00,-999.00,-999.0,no,no,no,300534060551660,NOMAD,AWI/USIABP,MOSAiC,North
2020-07-13T15:20:00Z,1594653601,2020,15,20,195.6389,195.6389,79.49984,3.63246,-999.00,-999.00,-999.0,no,no,no,300534060551660,NOMAD,AWI/USIABP,MOSAiC,North
2020-07-13T15:29:57Z,1594654197,2020,15,30,195.6458,195.6458,79.49973,3.63305,-999.00,-999.00,-999.0,no,no,no,300534060551660,NOMAD,AWI/USIABP,MOSAiC,North
2020-07-13T15:40:01Z,1594654802,2020,15,40,195.6528,195.6528,79.4997,3.63339,-999.00,-999.00,-999.0,no,no,no,300534060551660,NOMAD,AWI/USIABP,MOSAiC,North
2020-07-13T15:49:58Z,1594655398,2020,15,50,195.6597,195.6597,79.49968,3.63294,-999.00,-999.00,-999.0,no,no,no,300534060551660,NOMAD,AWI/USIABP,MOSAiC,North
2020-07-13T16:00:02Z,1594656003,2020,16,0,195.6667,195.6667,79.49963,3.6332,-999.00,-999.00,-999.0,no,no,no,300534060551660,NOMAD,AWI/USIABP,MOSAiC,North
2020-07-13T16:09:59Z,1594656599,2020,16,10,195.6736,195.6736,79.4996,3.63284,-999.00,-999.00,-999.0,no,no,no,300534060551660,NOMAD,AWI/USIABP,MOSAiC,North
2020-07-13T16:20:03Z,1594657204,2020,16,20,195.6806,195.6806,79.49969,3.63355,-999.00,-999.00,-999.0,no,no,no,300534060551660,NOMAD,AWI/USIABP,MOSAiC,North
2020-07-13T16:30:00Z,1594657800,2020,16,30,195.6875,195.6875,79.49974,3.63355,-999.00,-999.00,-999.0,no,no,no,300534060551660,NOMAD,AWI/USIABP,MOSAiC,North
2020-07-13T16:39:56Z,1594658396,2020,16,40,195.6944,195.6944,79.49969,3.63366,-999.00,-999.00,-999.0,no,no,no,300534060551660,NOMAD,AWI/USIABP,MOSAiC,North
2020-07-13T16:50:00Z,1594659001,2020,16,50,195.7014,195.7014,79.49969,3.63339,-999.00,-999.00,-999.0,no,no,no,300534060551660,NOMAD,AWI/USIABP,MOSAiC,North
2020-07-13T16:59:57Z,1594659597,2020,17,0,195.7083,195.7083,79.4997,3.63335,-999.00,-999.00,-999.0,no,no,no,300534060551660,NOMAD,AWI/USIABP,MOSAiC,North
2020-07-13T17:10:01Z,1594660202,2020,17,10,195.7153,195.7153,79.4997,3.63335,-999.00,-999.00,-999.0,no,no,no,300534060551660,NOMAD,AWI/USIABP,MOSAiC,North
2020-07-13T17:19:58Z,1594660798,2020,17,20,195.7222,195.7222,79.4997,3.63335,-999.00,-999.00,-999.0,no,no,no,300534060551660,NOMAD,AWI/USIABP,MOSAiC,North
2020-07-13T17:30:02Z,1594661403,2020,17,30,195.7292,195.7292,79.4997,3.63335,-999.00,-999.00,-999.0,no,no,no,300534060551660,NOMAD,AWI/USIABP,MOSAiC,North
2020-07-13T17:39:59Z,1594661999,2020,17,40,195.7361,195.7361,79.4997,3.63335,-999.00,-999.00,-999.0,no,no,no,300534060551660,NOMAD,AWI/USIABP,MOSAiC,North
2020-07-13T17:50:03Z,1594662604,2020,17,50,195.7431,195.7431,79.4997,3.63335,-999.00,-999.00,-999.0,no,no,no,300534060551660,NOMAD,AWI/USIABP,MOSAiC,North
2020-07-13T18:00:00Z,1594663200,2020,18,0,195.75,195.75,79.4997,3.63335,-999.00,-999.00,-999.0,no,no,no,300534060551660,NOMAD,AWI/USIABP,MOSAiC,North
2020-07-13T18:09:56Z,1594663796,2020,18,10,195.7569,195.7569,79.4997,3.63335,-999.00,-999.00,-999.0,no,no,no,300534060551660,NOMAD,AWI/USIABP,MOSAiC,North
2020-07-13T18:20:00Z,1594664401,2020,18,20,195.7639,195.7639,79.4997,3.63335,-999.00,-999.00,-999.0,no,no,no,300534060551660,NOMAD,AWI/USIABP,MOSAiC,North
2020-07-13T18:29:57Z,1594664997,2020,18,30,195.7708,195.7708,79.4997,3.63335,-999.00,-999.00,-999.0,no,no,no,300534060551660,NOMAD,AWI/USIABP,MOSAiC,North
2020-07-13T18:40:01Z,1594665602,2020,18,40,195.7778,195.7778,79.4997,3.63335,-999.00,-999.00,-999.0,no,no,no,300534060551660,NOMAD,AWI/USIABP,MOSAiC,North
2020-07-13T18:49:58Z,1594666198,2020,18,50,195.7847,195.7847,79.4997,3.63335,-999.00,-999.00,-999.0,no,no,no,300534060551660,NOMAD,AWI/USIABP,MOSAiC,North
2020-07-13T19:00:02Z,1594666803,2020,19,0,195.7917,195.7917,79.4997,3.63335,-999.00,-999.00,-999.0,no,no,no,300534060551660,NOMAD,AWI/USIABP,MOSAiC,North
2020-07-13T19:09:59Z,1594667399,2020,19,10,195.7986,195.7986,79.4997,3.63335,-999.00,-999.00,-999.0,no,no,no,300534060551660,NOMAD,AWI/USIABP,MOSAiC,North
2020-07-13T19:20:03Z,1594668004,2020,19,20,195.8056,195.8056,79.4997,3.63335,-999.00,-999.00,-999.0,no,no,no,300534060551660,NOMAD,AWI/USIABP,MOSAiC,North
2020-07-13T19:30:00Z,1594668600,2020,19,30,195.8125,195.8125,79.4997,3.63335,-999.00,-999.00,-999.0,no,no,no,300534060551660,NOMAD,AWI/USIABP,MOSAiC,North
2020-07-13T19:39:56Z,1594669196,2020,19,40,195.8194,195.8194,79.4997,3.63335,-999.00,-999.00,-999.0,no,no,no,300534060551660,NOMAD,AWI/USIABP,MOSAiC,North
2020-07-13T19:50:00Z,1594669801,2020,19,50,195.8264,195.8264,79.4997,3.63335,-999.00,-999.00,-999.0,no,no,no,300534060551660,NOMAD,AWI/USIABP,MOSAiC,North
2020-07-13T19:59:57Z,1594670397,2020,20,0,195.8333,195.8333,79.4997,3.63335,-999.00,-999.00,-999.0,no,no,no,300534060551660,NOMAD,AWI/USIABP,MOSAiC,North
2020-07-13T20:10:01Z,1594671002,2020,20,10,195.8403,195.8403,79.4997,3.63335,-999.00,-999.00,-999.0,no,no,no,300534060551660,NOMAD,AWI/USIABP,MOSAiC,North
2020-07-13T20:19:58Z,1594671598,2020,20,20,195.8472,195.8472,79.4997,3.63335,-999.00,-999.00,-999.0,no,no,no,300534060551660,NOMAD,AWI/USIABP,MOSAiC,North
2020-07-13T20:30:02Z,1594672203,2020,20,30,195.8542,195.8542,79.4997,3.63335,-999.00,-999.00,-999.0,no,no,no,300534060551660,NOMAD,AWI/USIABP,MOSAiC,North
2020-07-13T20:39:59Z,1594672799,2020,20,40,195.8611,195.8611,79.4997,3.63335,-999.00,-999.00,-999.0,no,no,no,300534060551660,NOMAD,AWI/USIABP,MOSAiC,North
2020-07-13T20:50:03Z,1594673404,2020,20,50,195.8681,195.8681,79.4997,3.63335,-999.00,-999.00,-999.0,no,no,no,300534060551660,NOMAD,AWI/USIABP,MOSAiC,North
2020-07-13T21:00:00Z,1594674000,2020,21,0,195.875,195.875,79.4997,3.63335,-999.00,-999.00,-999.0,no,no,no,300534060551660,NOMAD,AWI/USIABP,MOSAiC,North
2020-07-13T21:09:56Z,1594674596,2020,21,10,195.8819,195.8819,79.4997,3.63335,-999.00,-999.00,-999.0,no,no,no,300534060551660,NOMAD,AWI/USIABP,MOSAiC,North
2020-07-13T21:20:00Z,1594675201,2020,21,20,195.8889,195.8889,79.4997,3.63335,-999.00,-999.00,-999.0,no,no,no,300534060551660,NOMAD,AWI/USIABP,MOSAiC,North
2020-07-13T21:29:57Z,1594675797,2020,21,30,195.8958,195.8958,79.4997,3.63335,-999.00,-999.00,-999.0,no,no,no,300534060551660,NOMAD,AWI/USIABP,MOSAiC,North
2020-07-13T21:40:01Z,1594676402,2020,21,40,195.9028,195.9028,79.4997,3.63335,-999.00,-999.00,-999.0,no,no,no,300534060551660,NOMAD,AWI/USIABP,MOSAiC,North
2020-07-13T21:49:58Z,1594676998,2020,21,50,195.9097,195.9097,79.4997,3.63335,-999.00,-999.00,-999.0,no,no,no,300534060551660,NOMAD,AWI/USIABP,MOSAiC,North
2020-07-13T22:00:02Z,1594677603,2020,22,0,195.9167,195.9167,79.4997,3.63335,-999.00,-999.00,-999.0,no,no,no,300534060551660,NOMAD,AWI/USIABP,MOSAiC,North
2020-07-13T22:09:59Z,1594678199,2020,22,10,195.9236,195.9236,79.4997,3.63335,-999.00,-999.00,-999.0,no,no,no,300534060551660,NOMAD,AWI/USIABP,MOSAiC,North
2020-07-13T22:20:03Z,1594678804,2020,22,20,195.9306,195.9306,79.50002,3.83259,-999.00,-999.00,-999.0,no,no,no,300534060551660,NOMAD,AWI/USIABP,MOSAiC,North
2020-07-13T22:30:00Z,1594679400,2020,22,30,195.9375,195.9375,79.5,3.83011,-999.00,-999.00,-999.0,no,no,no,300534060551660,NOMAD,AWI/USIABP,MOSAiC,North
2020-07-13T22:39:56Z,1594679996,2020,22,40,195.9444,195.9444,79.50963,3.83083,-999.00,-999.00,-999.0,no,no,no,300534060551660,NOMAD,AWI/USIABP,MOSAiC,North
2020-07-13T22:50:00Z,1594680601,2020,22,50,195.9514,195.9514,79.52096,3.83078,-999.00,-999.00,-999.0,no,no,no,300534060551660,NOMAD,AWI/USIABP,MOSAiC,North
2020-07-13T22:59:57Z,1594681197,2020,23,0,195.9583,195.9583,79.52583,3.87264,-999.00,-999.00,-999.0,no,no,no,300534060551660,NOMAD,AWI/USIABP,MOSAiC,North
2020-07-13T23:10:01Z,1594681802,2020,23,10,195.9653,195.9653,79.52353,3.92566,-999.00,-999.00,-999.0,no,no,no,300534060551660,NOMAD,AWI/USIABP,MOSAiC,North
2020-07-13T23:19:58Z,1594682398,2020,23,20,195.9722,195.9722,79.51244,3.92918,-999.00,-999.00,-999.0,no,no,no,300534060551660,NOMAD,AWI/USIABP,MOSAiC,North
2020-07-13T23:30:02Z,1594683003,2020,23,30,195.9792,195.9792,79.50122,3.92784,-999.00,-999.00,-999.0,no,no,no,300534060551660,NOMAD,AWI/USIABP,MOSAiC,North
2020-07-13T23:39:59Z,1594683599,2020,23,40,195.9861,195.9861,79.48898,3.92822,-999.00,-999.00,-999.0,no,no,no,300534060551660,NOMAD,AWI/USIABP,MOSAiC,North
2020-07-13T23:50:03Z,1594684204,2020,23,50,195.9931,195.9931,79.47751,3.92717,-999.00,-999.00,-999.0,no,no,no,300534060551660,NOMAD,AWI/USIABP,MOSAiC,North
2020-07-14T00:00:00Z,1594684800,2020,0,0,196.0,196.0,79.46639,3.93121,-999.00,-999.00,-999.0,no,no,no,300534060551660,NOMAD,AWI/USIABP,MOSAiC,North
2020-07-14T00:09:56Z,1594685396,2020,0,10,196.0069,196.0069,79.4553,3.94283,-999.00,-999.00,-999.0,no,no,no,300534060551660,NOMAD,AWI/USIABP,MOSAiC,North
2020-07-14T00:20:00Z,1594686001,2020,0,20,196.0139,196.0139,79.44399,3.95653,-999.00,-999.00,-999.0,no,no,no,300534060551660,NOMAD,AWI/USIABP,MOSAiC,North
2020-07-14T00:29:57Z,1594686597,2020,0,30,196.0208,196.0208,79.43254,3.96685,-999.00,-999.00,-999.0,no,no,no,300534060551660,NOMAD,AWI/USIABP,MOSAiC,North
2020-07-14T00:40:01Z,1594687202,2020,0,40,196.0278,196.0278,79.42316,3.95609,-999.00,-999.00,-999.0,no,no,no,300534060551660,NOMAD,AWI/USIABP,MOSAiC,North
2020-07-14T00:49:58Z,1594687798,2020,0,50,196.0347,196.0347,79.42712,3.96514,-999.00,-999.00,-999.0,no,no,no,300534060551660,NOMAD,AWI/USIABP,MOSAiC,North
2020-07-14T01:00:02Z,1594688403,2020,1,0,196.0417,196.0417,79.42758,3.96358,-999.00,-999.00,-999.0,no,no,no,300534060551660,NOMAD,AWI/USIABP,MOSAiC,North
2020-07-14T01:09:59Z,1594688999,2020,1,10,196.0486,196.0486,79.43751,3.90589,-999.00,-999.00,-999.0,no,no,no,300534060551660,NOMAD,AWI/USIABP,MOSAiC,North
2020-07-14T01:20:03Z,1594689604,2020,1,20,196.0556,196.0556,79.44881,3.84021,-999.00,-999.00,-999.0,no,no,no,300534060551660,NOMAD,AWI/USIABP,MOSAiC,North
2020-07-14T01:30:00Z,1594690200,2020,1,30,196.0625,196.0625,79.46003,3.77417,-999.00,-999.00,-999.0,no,no,no,300534060551660,NOMAD,AWI/USIABP,MOSAiC,North
2020-07-14T01:39:56Z,1594690796,2020,1,40,196.0694,196.0694,79.47119,3.70926,-999.00,-999.00,-999.0,no,no,no,300534060551660,NOMAD,AWI/USIABP,MOSAiC,North
2020-07-14T01:50:00Z,1594691401,2020,1,50,196.0764,196.0764,79.48233,3.64369,-999.00,-999.00,-999.0,no,no,no,300534060551660,NOMAD,AWI/USIABP,MOSAiC,North
2020-07-14T01:59:57Z,1594691997,2020,2,0,196.0833,196.0833,79.4936,3.57744,-999.00,-999.00,-999.0,no,no,no,300534060551660,NOMAD,AWI/USIABP,MOSAiC,North
2020-07-14T02:10:01Z,1594692602,2020,2,10,196.0903,196.0903,79.50506,3.5104,-999.00,-999.00,-999.0,no,no,no,300534060551660,NOMAD,AWI/USIABP,MOSAiC,North
2020-07-14T02:19:58Z,1594693198,2020,2,20,196.0972,196.0972,79.51668,3.44213,-999.00,-999.00,-999.0,no,no,no,300534060551660,NOMAD,AWI/USIABP,MOSAiC,North
2020-07-14T02:30:02Z,1594693803,2020,2,30,196.1042,196.1042,79.50976,3.364,-999.00,-999.00,-999.0,no,no,no,300534060551660,NOMAD,AWI/USIABP,MOSAiC,North
2020-07-14T02:39:59Z,1594694399,2020,2,40,196.1111,196.1111,79.49413,3.29136,-999.00,-999.00,-999.0,no,no,no,300534060551660,NOMAD,AWI/USIABP,MOSAiC,North
2020-07-14T02:50:03Z,1594695004,2020,2,50,196.1181,196.1181,79.48252,3.35415,-999.00,-999.00,-999.0,no,no,no,300534060551660,NOMAD,AWI/USIABP,MOSAiC,North
2020-07-14T03:00:00Z,1594695600,2020,3,0,196.125,196.125,79.47118,3.42136,-999.00,-999.00,-999.0,no,no,no,300534060551660,NOMAD,AWI/USIABP,MOSAiC,North
2020-07-14T03:09:56Z,1594696196,2020,3,10,196.1319,196.1319,79.45999,3.48766,-999.00,-999.00,-999.0,no,no,no,300534060551660,NOMAD,AWI/USIABP,MOSAiC,North
2020-07-14T03:20:00Z,1594696801,2020,3,20,196.1389,196.1389,79.44864,3.55357,-999.00,-999.00,-999.0,no,no,no,300534060551660,NOMAD,AWI/USIABP,MOSAiC,North
2020-07-14T03:29:57Z,1594697397,2020,3,30,196.1458,196.1458,79.43735,3.61983,-999.00,-999.00,-999.0,no,no,no,300534060551660,NOMAD,AWI/USIABP,MOSAiC,North
2020-07-14T03:40:01Z,1594698002,2020,3,40,196.1528,196.1528,79.42629,3.68437,-999.00,-999.00,-999.0,no,no,no,300534060551660,NOMAD,AWI/USIABP,MOSAiC,North
2020-07-14T03:49:58Z,1594698598,2020,3,50,196.1597,196.1597,79.41536,3.74783,-999.00,-999.00,-999.0,no,no,no,300534060551660,NOMAD,AWI/USIABP,MOSAiC,North
2020-07-14T04:00:02Z,1594699203,2020,4,0,196.1667,196.1667,79.40445,3.81225,-999.00,-999.00,-999.0,no,no,no,300534060551660,NOMAD,AWI/USIABP,MOSAiC,North
2020-07-14T04:09:59Z,1594699799,2020,4,10,196.1736,196.1736,79.38865,3.77759,-999.00,-999.00,-999.0,no,no,no,300534060551660,NOMAD,AWI/USIABP,MOSAiC,North